User: anonymous   Login
Location: Nag� el Ma?a??a
(24.0667°N, 32.8833°E)
Time: 10:26:59
(UTC+00:00)
Language:

Gbstr 26 Del rocket - Orbit

View from above orbital plane
View from above orbital plane
View from above satellite
View from above satellite

Ground track
Ground track

The orbit data is extracted from the following two-line orbital elements,

1 25876U 99041E   21340.74244328 -.00000069  00000-0  30333-4 0  9997
2 25876  51.7646 348.9200 0531238 111.3497 254.4970 14.04687082144137
Epoch (UTC): 06 December 2021 17:49:07
Eccentricity: 0.0531238
inclination: 51.7646°
perigee height: 492 km
apogee height: 1263 km
right ascension of ascending node: 348.9200°
argument of perigee: 111.3497°
revolutions per day: 14.04687082
mean anomaly at epoch: 254.4970°
orbit number at epoch: 14413

The dashed part of the orbit path shows where the satellite is in the earth's shadow,  

DLR